Temp
89 88 87 86 87 88 88 88 89 88 87 87 87 86 83 81 77 76 76 77 81 86 91 88 83 88 86 86 88 86 87 85 84 88 88 87 86 75 71 71 72 72 72 71 71 70 71 71 71 72 72 73 73 73 73 73 73 74 73 73 73 73 73 72 72 72 72 72 73 73 73 74 75 75
87 88 87 87 87 87 87 87 88 87 85 86 86 86 86 84 79 79 76 77 82 83 86 90 84 84 85 86 86 87 86 79 83 87 87 87 86 72 71 72 71 72 71 70 69 69 70 70 70 70 71 71 71 72 72 72 72 72 72 72 72 72 72 71 71 72 72 71 72 72 72 73 73 73
87 86 86 86 86 86 86 86 88 87 85 86 86 86 86 84 83 81 79 76 81 86 83 87 90 87 84 89 88 86 87 83 85 87 86 87 76 72 77 70 72 71 70 70 69 69 69 68 68 69 70 70 70 71 71 71 72 72 72 72 72 72 72 71 70 71 71 71 71 71 72 72 72 72
87 85 85 84 84 85 85 85 86 86 85 86 86 85 85 84 84 82 80 78 78 84 86 86 85 88 86 85 85 85 87 83 78 86 86 83 76 82 86 73 73 72 70 70 69 68 68 67 68 69 69 70 70 70 71 71 71 71 70 70 70 69 69 69 70 70 70 70 71 71 71 71 71 72
86 84 84 85 85 85 84 85 86 86 85 85 86 85 85 84 84 82 80 78 78 82 86 86 87 87 87 84 85 84 85 84 84 82 85 84 85 86 87 86 73 71 70 69 69 68 68 67 67 68 69 69 69 70 70 70 69 69 69 69 68 68 68 68 69 69 69 70 70 70 70 71 71 72
86 85 84 84 85 85 84 85 85 86 86 85 86 85 85 84 84 84 82 80 79 79 82 83 86 85 86 83 85 83 84 83 84 83 84 85 86 86 87 87 84 69 71 69 68 68 67 67 67 67 68 68 69 69 69 68 67 67 68 68 67 67 66 66 67 67 68 68 69 69 69 70 70 71
85 84 84 85 85 86 84 84 85 87 85 86 85 84 85 83 84 84 83 81 79 79 81 83 83 83 83 83 82 84 85 84 84 82 83 84 85 86 86 86 89 69 71 68 69 68 67 67 67 67 67 67 67 67 66 65 65 66 65 64 65 65 65 65 65 65 66 66 67 67 68 68 69 69
85 85 84 86 86 85 83 83 84 85 85 85 84 84 84 83 83 84 83 82 81 81 79 81 83 84 82 82 84 84 84 84 83 83 83 84 84 86 86 85 87 75 68 68 68 68 68 67 67 66 65 65 65 65 64 64 65 64 64 64 63 63 63 62 62 63 64 64 64 65 65 66 67 67
85 85 85 86 86 85 83 83 84 84 84 84 84 83 84 83 84 84 83 82 82 80 79 80 82 83 83 84 83 83 82 82 82 83 82 83 83 83 86 88 87 74 65 69 69 68 69 69 67 66 66 66 65 65 65 65 64 64 63 61 60 62 62 62 62 62 62 62 62 63 64 65 65 65
86 86 86 86 86 85 83 84 84 84 83 83 83 83 83 83 83 82 82 82 81 80 80 80 80 81 81 81 81 82 82 81 80 81 82 82 82 82 82 85 87 88 87 85 82 72 70 68 66 67 68 65 64 64 64 65 64 62 61 59 59 61 60 59 60 60 60 60 60 60 61 63 63 64
88 88 87 86 86 85 85 85 84 84 83 83 83 83 82 83 82 81 81 81 80 80 79 80 81 80 81 81 79 82 83 82 82 79 79 79 82 81 81 81 85 87 87 81 74 77 77 72 75 68 64 65 65 64 64 64 63 62 60 58 58 58 58 59 59 58 58 60 60 60 60 59 61 62
90 89 89 90 88 87 86 86 86 85 83 83 83 83 83 82 81 81 81 81 80 80 80 80 79 80 79 80 82 83 80 79 79 80 80 78 79 80 80 81 80 82 81 82 86 77 74 74 71 64 65 66 66 65 65 66 67 65 60 60 62 62 60 59 59 58 58 58 58 59 60 60 60 60
88 89 89 90 91 87 81 79 81 82 80 84 82 82 83 82 81 81 81 81 80 80 80 79 80 79 78 79 79 79 78 77 77 80 81 79 80 81 81 81 81 81 80 81 83 82 83 82 82 83 82 81 74 72 68 73 70 65 63 61 62 62 61 59 59 59 59 58 58 58 59 59 59 59
87 89 91 89 81 78 75 75 75 75 74 76 83 84 82 81 81 80 80 80 80 80 79 79 78 77 77 79 79 79 80 81 81 80 79 77 79 79 78 79 81 82 81 80 77 80 83 82 81 81 80 82 81 82 82 79 75 66 62 63 63 62 62 60 59 58 58 58 58 58 57 58 58 58
86 87 88 89 83 78 75 78 72 73 71 73 74 76 77 79 82 81 80 80 81 79 80 80 80 79 78 79 81 81 82 82 81 80 79 79 78 76 75 74 78 81 79 76 75 76 80 80 77 78 80 81 81 82 80 65 67 64 64 63 63 63 62 62 62 61 59 59 59 58 57 57 58 58
86 86 87 88 88 86 85 85 80 75 70 70 71 71 73 73 75 77 81 81 80 80 79 79 80 80 79 79 80 81 82 80 80 79 79 77 77 75 74 75 74 78 78 76 74 75 79 80 78 77 78 81 82 82 70 66 63 63 63 63 62 62 61 62 62 62 61 60 61 61 60 60 60 59
86 86 86 86 86 86 75 80 84 82 78 69 67 69 70 71 71 70 70 74 82 83 80 80 80 80 81 79 79 81 81 82 79 78 77 77 77 76 75 76 78 78 80 76 73 73 78 79 78 78 79 81 81 80 66 63 66 65 63 63 62 62 62 61 61 61 61 61 59 58 58 59 59 59
86 85 85 85 84 86 83 83 84 83 81 79 77 76 78 80 77 69 68 69 72 78 83 81 80 82 82 79 80 82 82 79 78 78 78 78 77 76 75 77 77 78 80 75 74 72 76 80 78 76 79 81 80 79 72 65 67 63 62 62 61 61 61 61 60 60 60 60 59 58 57 56 55 56
87 86 86 85 85 85 84 83 82 83 82 81 79 79 80 80 82 81 83 83 84 83 85 84 83 83 83 82 82 81 81 81 80 80 79 79 78 78 78 77 77 78 80 77 74 69 75 79 76 77 78 81 78 80 73 68 65 64 63 62 62 61 61 61 61 60 59 59 59 58 57 56 55 55
86 86 86 85 85 85 84 75 69 76 83 82 80 79 80 80 83 84 79 76 78 84 86 85 86 88 86 78 83 82 83 81 80 80 80 79 76 75 74 73 80 79 81 78 75 72 73 78 77 76 79 79 77 78 78 71 65 66 63 63 63 61 60 60 60 59 59 59 59 58 57 55 53 54
86 86 86 86 85 85 85 72 65 68 74 82 81 80 80 82 83 83 85 72 71 70 63 61 62 63 60 60 59 60 64 75 80 80 78 75 79 74 72 74 76 77 81 81 79 75 72 75 75 75 77 76 75 76 78 80 66 63 63 64 63 61 59 60 60 60 59 59 59 58 57 55 54 54
85 85 77 81 86 85 85 65 64 65 74 81 81 81 82 81 81 83 86 84 74 61 62 62 63 63 63 61 61 61 61 64 74 78 75 79 81 76 75 73 75 79 79 79 80 72 73 75 75 73 75 74 77 78 79 78 75 69 66 62 60 59 60 59 59 60 60 59 58 58 56 55 55 66
86 85 78 72 78 81 78 60 63 62 72 81 81 81 81 80 79 79 82 80 79 77 77 76 75 71 69 72 75 71 62 68 74 79 78 81 79 75 76 78 75 72 76 77 77 71 72 72 75 73 70 69 75 78 77 77 77 77 77 77 77 66 61 59 59 59 59 59 58 58 56 55 55 71
84 85 86 76 64 67 63 58 59 60 64 79 81 83 81 80 79 83 81 80 80 78 78 78 77 77 77 78 78 76 74 75 76 78 79 80 80 76 76 77 75 73 75 78 78 72 74 74 72 75 73 67 67 73 76 76 76 77 77 76 76 70 68 64 63 59 57 58 57 56 55 55 56 72
85 84 84 88 67 61 58 56 56 57 59 68 81 80 80 81 80 79 82 78 76 79 78 78 77 78 78 78 79 78 77 78 78 78 80 81 81 79 78 78 77 77 78 75 72 73 70 73 70 72 71 71 72 71 73 74 75 76 77 76 75 77 76 76 74 77 67 59 56 55 55 56 53 63
86 85 85 86 70 58 57 55 55 55 58 61 78 80 68 68 66 79 82 80 79 79 79 79 77 77 78 79 80 80 80 80 79 81 81 82 83 82 82 78 74 73 74 72 67 74 71 69 71 70 70 69 70 72 69 70 74 77 76 77 77 76 76 76 77 77 76 78 78 69 69 57 56 54
86 86 85 83 62 57 55 53 53 54 56 60 72 63 61 59 64 73 81 80 78 79 78 77 75 76 78 78 78 79 79 81 80 81 81 81 81 80 81 79 78 76 76 77 76 74 71 69 72 69 68 69 66 68 69 69 71 75 75 76 76 77 78 78 76 76 77 77 76 65 61 59 56 56
88 87 86 80 57 55 52 51 52 54 56 68 60 56 57 60 65 77 77 77 78 77 76 75 74 74 77 79 78 78 79 81 78 79 80 79 80 78 78 77 77 78 77 77 77 75 73 71 71 71 70 68 66 65 66 71 72 73 72 75 76 77 78 77 76 75 76 76 76 75 75 75 77 75
88 76 68 58 52 54 53 52 53 55 56 58 58 55 57 64 75 75 77 77 78 75 74 74 74 75 77 78 79 79 79 79 78 77 79 79 78 79 77 77 76 76 76 78 76 75 74 73 71 71 70 70 68 68 68 67 70 71 72 70 71 75 75 76 76 76 75 75 75 74 74 74 74 74
71 67 60 54 55 54 57 60 64 66 64 58 58 56 61 73 73 74 75 75 74 73 73 74 74 77 79 79 78 78 77 76 75 75 75 75 75 76 75 73 73 75 77 77 77 76 75 73 72 70 69 69 69 68 68 68 68 71 71 71 72 74 76 76 75 75 74 73 74 73 75 75 74 73
78 66 65 66 60 61 57 61 62 64 61 60 60 62 67 72 74 75 74 74 73 73 75 75 76 79 79 79 77 75 74 74 75 75 74 75 75 74 74 72 72 74 76 77 78 78 76 75 73 72 68 68 69 68 68 69 68 69 71 73 73 69 73 75 75 75 74 74 74 74 74 74 74 74
78 70 60 58 65 64 64 65 66 66 65 64 64 66 69 71 73 73 72 73 75 75 77 77 78 78 77 76 75 75 75 75 75 75 74 74 75 76 74 70 70 73 74 76 77 75 74 74 72 72 70 68 66 67 69 69 69 70 71 73 73 75 75 74 74 74 74 73 71 71 71 73 73 74
71 68 67 68 66 65 64 64 64 64 65 68 69 69 71 73 75 74 74 73 73 73 74 75 75 77 76 75 75 75 75 74 75 75 74 74 74 74 74 72 72 73 72 73 73 74 74 74 74 72 71 70 70 68 67 66 69 72 71 72 72 72 74 75 74 73 72 70 69 70 69 71 73 74
69 66 65 65 65 64 65 64 65 65 65 66 66 67 66 72 74 73 73 72 73 74 73 75 75 75 74 74 75 75 75 74 75 74 70 72 73 71 71 71 71 73 71 72 72 73 73 73 72 72 71 70 72 70 69 68 68 71 72 72 72 71 73 73 74 73 71 70 68 67 68 70 72 74
69 67 66 65 65 64 65 65 65 64 64 64 65 67 69 72 71 70 72 73 72 72 73 75 75 75 75 75 75 75 75 74 75 75 73 73 72 71 72 71 72 72 72 71 72 72 72 70 70 70 69 70 69 71 71 71 70 71 72 72 72 71 70 72 72 71 70 69 70 67 67 69 70 73
66 67 66 64 64 65 65 65 65 65 65 65 66 67 67 68 69 70 70 71 74 73 74 75 75 75 75 76 75 76 76 74 75 74 72 73 72 72 73 72 72 72 72 72 71 73 73 72 71 68 67 68 68 68 71 68 69 73 70 70 71 70 70 70 70 70 70 70 69 68 65 65 68 71
65 66 65 65 65 65 65 66 65 65 67 66 67 68 67 67 68 70 71 70 74 73 75 76 76 76 76 76 75 74 75 75 75 75 73 73 73 72 72 71 71 70 71 71 72 72 72 71 70 69 67 67 67 66 70 71 64 64 72 70 69 71 69 69 69 68 70 69 68 68 67 67 67 69
65 65 65 65 65 65 66 66 66 66 67 67 67 66 67 69 70 70 72 72 73 75 75 76 76 76 77 76 76 76 77 76 76 75 73 73 72 72 71 71 72 71 71 72 72 72 72 71 70 70 68 66 66 66 67 72 72 69 62 68 69 70 71 69 68 68 68 70 69 69 69 67 67 69
65 64 64 64 64 64 64 64 65 66 67 66 66 66 67 69 70 70 70 71 73 74 76 76 77 76 76 77 77 76 75 75 75 75 74 74 73 71 71 71 71 72 71 71 71 71 71 70 70 70 70 68 66 67 68 67 67 72 67 57 68 70 70 69 68 69 68 68 69 69 69 69 69 65
65 65 65 64 64 64 64 65 65 66 67 67 67 67 66 66 67 69 69 69 72 74 76 77 77 74 77 77 76 78 77 75 75 75 74 74 73 72 72 72 71 71 70 70 70 71 71 71 71 71 71 70 70 70 71 70 71 71 72 66 54 65 70 71 68 67 67 68 67 66 65 67 66 68
64 64 65 65 65 65 65 64 65 66 66 67 68 64 67 67 66 67 68 69 71 73 75 76 76 75 77 78 77 78 77 76 75 75 75 74 72 72 70 67 70 70 69 69 70 70 71 73 70 62 67 69 70 70 68 66 65 70 72 75 56 54 58 61 69 68 66 66 66 65 64 63 64 64
65 65 65 65 65 65 65 66 66 66 66 67 67 66 66 67 67 64 69 68 72 73 76 77 76 75 76 77 77 77 76 74 74 74 74 74 73 70 68 68 69 70 69 69 70 72 74 73 72 70 70 69 69 66 65 66 67 69 70 72 75 60 52 54 59 61 67 68 66 64 63 64 65 62
65 65 64 65 65 65 65 66 66 66 66 67 67 68 67 69 68 69 71 70 72 75 77 76 76 76 77 78 78 77 76 74 74 74 74 73 73 71 69 69 70 71 71 71 72 72 72 72 71 71 70 70 69 69 66 67 68 68 69 72 72 74 73 58 54 55 57 59 60 63 65 64 60 57
64 64 64 64 64 65 66 66 66 67 66 68 68 68 68 70 71 72 73 73 74 75 77 76 75 76 76 76 76 76 76 76 75 74 73 72 73 73 72 71 70 71 71 71 71 71 73 72 72 72 70 69 70 69 68 68 69 69 70 70 70 70 71 74 74 63 59 58 55 55 56 57 60 59
64 64 64 64 64 65 65 66 65 66 66 68 69 70 70 71 71 72 73 74 75 76 76 76 75 76 75 75 75 74 75 69 72 74 73 73 72 72 72 73 71 70 69 70 70 70 70 71 72 72 70 70 70 69 69 68 68 68 68 68 69 70 71 70 68 68 69 70 65 57 55 55 55 55
MSLP
1018.01 1018.33 1018.61 1018.89 1018.93 1018.81 1018.73 1018.85 1018.89 1019.09 1019.29 1019.45 1019.61 1019.81 1020.45 1020.93 1021.73 1022.25 1022.21 1021.97 1021.37 1020.33 1019.73 1019.93 1020.61 1019.89 1020.13 1020.25 1020.01 1020.29 1020.21 1020.29 1020.49 1020.33 1020.25 1020.53 1020.65 1021.13 1021.37 1021.45 1021.45 1021.49 1021.49 1021.49 1021.45 1021.41 1021.33 1021.25 1021.17 1021.13 1021.09 1021.05 1021.05 1020.97 1020.93 1020.89 1020.85 1020.85 1020.85 1020.85 1020.81 1020.81 1020.81 1020.77 1020.77 1020.73 1020.73 1020.73 1020.69 1020.65 1020.61 1020.53 1020.45 1020.37
1017.73 1017.93 1018.17 1018.45 1018.73 1018.69 1018.81 1018.93 1018.81 1018.97 1019.29 1019.45 1019.53 1019.61 1019.73 1019.97 1021.09 1021.29 1021.93 1021.73 1020.73 1020.53 1019.97 1019.53 1020.29 1020.21 1020.09 1020.01 1020.13 1020.05 1020.21 1020.41 1020.45 1020.25 1020.33 1020.33 1020.53 1021.05 1021.21 1021.25 1021.29 1021.29 1021.29 1021.29 1021.25 1021.17 1021.13 1021.13 1021.09 1021.05 1021.05 1021.01 1020.93 1020.89 1020.81 1020.77 1020.73 1020.69 1020.69 1020.69 1020.65 1020.61 1020.57 1020.57 1020.57 1020.53 1020.49 1020.49 1020.49 1020.45 1020.41 1020.37 1020.29 1020.25
1017.57 1017.89 1018.17 1018.21 1018.49 1018.45 1018.65 1018.65 1018.65 1018.73 1019.05 1019.17 1019.21 1019.33 1019.45 1019.73 1020.09 1020.61 1021.05 1021.85 1020.53 1019.81 1020.37 1019.77 1019.25 1019.81 1020.01 1019.65 1019.81 1020.01 1019.97 1020.25 1020.33 1020.21 1020.25 1020.33 1020.73 1020.89 1020.89 1021.01 1021.09 1021.09 1021.05 1021.05 1021.05 1021.05 1021.09 1021.09 1021.09 1021.05 1021.01 1020.93 1020.85 1020.77 1020.69 1020.65 1020.61 1020.57 1020.53 1020.49 1020.45 1020.45 1020.37 1020.37 1020.37 1020.37 1020.33 1020.29 1020.25 1020.25 1020.17 1020.13 1020.09 1020.05
1017.33 1017.73 1018.05 1018.17 1018.33 1018.33 1018.45 1018.57 1018.53 1018.69 1018.77 1018.77 1018.97 1019.13 1019.33 1019.57 1019.65 1019.97 1020.57 1021.13 1021.05 1019.93 1019.77 1019.61 1019.65 1019.45 1019.65 1019.77 1020.01 1020.01 1019.89 1020.05 1020.33 1020.09 1020.17 1020.29 1020.65 1020.57 1020.29 1020.65 1020.77 1020.89 1020.89 1020.93 1020.97 1021.01 1021.05 1021.05 1021.01 1020.97 1020.89 1020.85 1020.77 1020.69 1020.61 1020.53 1020.49 1020.45 1020.41 1020.37 1020.33 1020.29 1020.29 1020.25 1020.21 1020.17 1020.13 1020.13 1020.09 1020.05 1019.97 1019.89 1019.85 1019.77
1017.13 1017.49 1017.77 1017.85 1017.97 1017.97 1018.33 1018.37 1018.33 1018.41 1018.57 1018.61 1018.65 1018.77 1019.05 1019.37 1019.41 1019.73 1020.33 1020.81 1020.81 1019.93 1019.17 1019.41 1019.33 1019.25 1019.33 1019.85 1019.77 1020.05 1020.05 1020.17 1020.17 1020.13 1020.09 1020.21 1020.29 1020.09 1019.93 1019.93 1020.37 1020.57 1020.73 1020.81 1020.85 1020.89 1020.89 1020.89 1020.89 1020.85 1020.77 1020.73 1020.65 1020.57 1020.53 1020.49 1020.45 1020.41 1020.33 1020.29 1020.25 1020.21 1020.13 1020.09 1020.05 1020.01 1019.97 1019.93 1019.89 1019.85 1019.77 1019.69 1019.57 1019.49
1016.85 1017.13 1017.49 1017.57 1017.65 1017.69 1018.05 1018.05 1018.17 1018.09 1018.21 1018.37 1018.53 1018.73 1018.85 1019.13 1019.21 1019.13 1019.81 1020.25 1020.37 1020.53 1019.77 1019.77 1019.17 1019.33 1019.41 1019.93 1019.53 1019.89 1020.05 1020.13 1020.09 1020.21 1020.13 1020.05 1019.93 1019.89 1019.73 1019.57 1019.89 1020.33 1020.53 1020.57 1020.61 1020.61 1020.69 1020.69 1020.69 1020.61 1020.57 1020.53 1020.49 1020.45 1020.41 1020.41 1020.37 1020.33 1020.29 1020.21 1020.13 1020.09 1020.01 1019.97 1019.93 1019.89 1019.85 1019.81 1019.73 1019.69 1019.61 1019.53 1019.41 1019.29
1016.57 1016.93 1017.17 1017.25 1017.29 1017.37 1017.81 1017.89 1017.85 1017.73 1017.97 1017.97 1018.29 1018.49 1018.57 1018.85 1018.85 1018.97 1019.25 1019.73 1020.29 1020.29 1019.97 1019.33 1019.57 1019.53 1019.57 1019.65 1019.89 1019.65 1019.65 1019.73 1019.85 1020.17 1020.13 1020.01 1019.81 1019.65 1019.61 1019.53 1019.37 1020.01 1020.13 1020.29 1020.33 1020.37 1020.45 1020.45 1020.37 1020.33 1020.33 1020.33 1020.33 1020.33 1020.29 1020.25 1020.21 1020.17 1020.13 1020.09 1020.05 1020.01 1019.93 1019.89 1019.85 1019.77 1019.69 1019.61 1019.57 1019.49 1019.45 1019.37 1019.29 1019.21
1016.21 1016.53 1016.85 1016.81 1016.85 1017.09 1017.57 1017.65 1017.69 1017.61 1017.69 1017.93 1018.09 1018.29 1018.33 1018.57 1018.73 1018.73 1019.01 1019.21 1019.65 1019.73 1020.05 1019.61 1019.41 1019.13 1019.61 1019.65 1019.33 1019.45 1019.49 1019.65 1019.81 1019.77 1019.73 1019.61 1019.65 1019.49 1019.41 1019.45 1019.37 1019.61 1019.93 1020.05 1020.13 1020.13 1020.13 1020.13 1020.09 1020.09 1020.13 1020.13 1020.13 1020.13 1020.13 1020.09 1020.05 1020.05 1020.01 1019.97 1019.93 1019.89 1019.85 1019.81 1019.73 1019.69 1019.61 1019.57 1019.53 1019.41 1019.33 1019.29 1019.25 1019.17
1015.65 1015.97 1016.25 1016.33 1016.41 1016.73 1017.25 1017.37 1017.45 1017.41 1017.69 1017.73 1017.85 1018.09 1018.13 1018.37 1018.49 1018.57 1018.77 1019.05 1019.21 1019.61 1019.93 1019.69 1019.29 1019.09 1019.25 1019.17 1019.33 1019.33 1019.81 1019.77 1019.69 1019.57 1019.69 1019.57 1019.49 1019.45 1019.21 1019.01 1019.05 1019.41 1019.65 1019.77 1019.81 1019.81 1019.81 1019.77 1019.77 1019.85 1019.89 1019.93 1019.93 1019.93 1019.89 1019.85 1019.81 1019.85 1019.85 1019.81 1019.77 1019.73 1019.69 1019.69 1019.61 1019.53 1019.49 1019.41 1019.41 1019.37 1019.29 1019.17 1019.05 1018.97
1015.05 1015.37 1015.69 1015.77 1015.97 1016.29 1016.77 1016.93 1017.01 1017.13 1017.41 1017.57 1017.73 1017.89 1017.93 1018.05 1018.25 1018.53 1018.65 1018.81 1019.09 1019.37 1019.53 1019.57 1019.61 1019.37 1019.45 1019.45 1019.37 1019.17 1019.33 1019.69 1019.89 1019.69 1019.49 1019.37 1019.37 1019.49 1019.49 1019.17 1018.89 1018.81 1018.97 1019.13 1019.25 1019.37 1019.37 1019.21 1019.45 1019.61 1019.65 1019.69 1019.77 1019.73 1019.69 1019.65 1019.65 1019.69 1019.69 1019.65 1019.65 1019.61 1019.57 1019.53 1019.49 1019.41 1019.33 1019.21 1019.17 1019.13 1019.13 1019.05 1018.97 1018.81
1014.41 1014.69 1015.01 1015.25 1015.41 1015.73 1015.97 1016.29 1016.53 1016.81 1017.05 1017.25 1017.45 1017.53 1017.73 1017.77 1018.05 1018.37 1018.53 1018.69 1018.97 1019.17 1019.41 1019.33 1019.21 1019.33 1019.13 1019.09 1019.57 1019.09 1018.93 1019.13 1019.29 1019.77 1019.81 1019.81 1019.17 1019.25 1019.41 1019.53 1019.01 1018.69 1018.65 1018.61 1018.85 1018.81 1018.77 1018.93 1019.05 1019.21 1019.41 1019.49 1019.49 1019.49 1019.49 1019.41 1019.41 1019.45 1019.53 1019.53 1019.53 1019.49 1019.45 1019.41 1019.33 1019.25 1019.17 1019.09 1019.01 1018.89 1018.81 1018.81 1018.81 1018.73
1013.81 1014.09 1014.29 1014.49 1014.73 1015.01 1015.25 1015.57 1015.85 1016.13 1016.61 1016.77 1017.13 1017.13 1017.33 1017.53 1017.85 1018.09 1018.21 1018.49 1018.73 1018.97 1019.09 1019.17 1019.29 1019.21 1019.21 1019.09 1018.81 1018.69 1019.13 1019.57 1019.57 1019.37 1019.49 1019.81 1019.53 1019.33 1019.17 1019.13 1019.37 1019.05 1019.09 1019.09 1018.57 1018.49 1018.77 1018.65 1018.81 1019.05 1019.05 1019.05 1019.09 1019.17 1019.25 1019.17 1019.05 1019.09 1019.37 1019.41 1019.41 1019.41 1019.37 1019.29 1019.21 1019.09 1019.01 1018.93 1018.85 1018.77 1018.65 1018.57 1018.49 1018.53
1013.41 1013.53 1013.65 1013.81 1013.93 1014.29 1014.65 1014.93 1015.17 1015.41 1015.73 1016.25 1016.77 1016.81 1016.93 1017.25 1017.53 1017.77 1017.85 1018.17 1018.45 1018.65 1018.77 1018.97 1018.77 1019.05 1019.21 1019.05 1019.17 1019.29 1019.45 1019.57 1019.49 1018.93 1019.01 1019.41 1019.21 1019.05 1019.09 1018.93 1018.81 1018.93 1019.13 1019.01 1018.81 1018.77 1018.53 1018.65 1018.65 1018.49 1018.49 1018.37 1018.65 1018.73 1018.73 1018.57 1018.61 1018.97 1019.25 1019.33 1019.29 1019.25 1019.21 1019.13 1019.05 1018.97 1018.85 1018.77 1018.65 1018.57 1018.49 1018.41 1018.29 1018.21
1013.05 1013.09 1013.13 1013.17 1013.53 1013.93 1014.37 1014.73 1015.01 1015.21 1015.45 1015.65 1015.77 1016.09 1016.49 1016.85 1017.17 1017.45 1017.69 1017.89 1018.01 1018.29 1018.65 1018.65 1018.81 1019.17 1019.13 1018.85 1018.81 1018.97 1018.73 1018.53 1018.53 1018.89 1019.17 1019.57 1019.13 1019.09 1019.25 1019.09 1018.73 1018.53 1018.85 1019.05 1019.29 1018.89 1018.45 1018.57 1018.65 1018.57 1018.57 1018.25 1018.21 1018.13 1018.01 1018.29 1018.49 1019.01 1019.13 1019.05 1019.01 1018.97 1018.93 1018.85 1018.81 1018.73 1018.65 1018.57 1018.49 1018.37 1018.29 1018.21 1018.13 1018.05
1012.73 1012.73 1012.77 1012.85 1013.21 1013.73 1014.17 1014.49 1014.81 1015.01 1015.25 1015.41 1015.61 1015.73 1015.89 1016.05 1016.45 1017.01 1017.37 1017.45 1017.45 1017.89 1018.05 1017.97 1018.21 1018.45 1018.65 1018.49 1018.21 1018.33 1018.25 1018.29 1018.53 1018.73 1018.89 1019.09 1019.13 1019.45 1019.77 1019.97 1018.97 1018.41 1018.81 1019.41 1019.49 1019.25 1018.61 1018.61 1018.89 1018.65 1018.49 1018.29 1018.13 1018.01 1018.13 1018.61 1018.69 1018.81 1018.89 1018.89 1018.89 1018.81 1018.69 1018.61 1018.53 1018.45 1018.37 1018.33 1018.21 1018.17 1018.09 1018.05 1017.97 1017.89
1012.17 1012.37 1012.49 1012.61 1012.69 1013.09 1013.49 1013.89 1014.45 1014.85 1015.05 1015.21 1015.41 1015.61 1015.77 1015.93 1015.97 1015.97 1016.37 1016.85 1017.21 1017.33 1017.61 1017.77 1017.77 1017.81 1018.13 1018.13 1018.01 1018.01 1018.09 1018.25 1018.41 1018.57 1018.65 1018.93 1019.09 1019.29 1019.49 1019.45 1019.61 1018.77 1018.73 1019.29 1019.45 1019.37 1018.53 1018.33 1018.57 1018.65 1018.37 1018.09 1017.93 1017.81 1018.17 1018.45 1018.69 1018.73 1018.77 1018.73 1018.73 1018.65 1018.57 1018.45 1018.37 1018.25 1018.17 1018.13 1018.05 1017.97 1017.89 1017.85 1017.77 1017.73
1011.61 1011.81 1012.13 1012.37 1012.41 1012.53 1013.09 1013.49 1013.73 1014.21 1014.77 1015.09 1015.25 1015.41 1015.65 1015.81 1015.89 1016.01 1016.05 1016.01 1016.13 1016.29 1016.97 1017.21 1017.33 1017.37 1017.45 1017.85 1017.85 1017.57 1017.73 1017.65 1018.33 1018.57 1018.81 1018.73 1018.85 1018.89 1019.09 1019.05 1018.81 1018.61 1018.41 1019.09 1019.45 1019.37 1018.61 1018.33 1018.37 1018.33 1018.01 1017.81 1017.77 1017.89 1018.17 1018.45 1018.41 1018.45 1018.49 1018.53 1018.49 1018.45 1018.37 1018.29 1018.17 1018.09 1018.01 1017.97 1017.93 1017.85 1017.81 1017.69 1017.61 1017.53
1011.09 1011.29 1011.61 1011.97 1012.25 1012.25 1012.65 1013.01 1013.29 1013.61 1014.05 1014.61 1015.13 1015.49 1015.65 1015.69 1015.77 1015.97 1016.01 1016.05 1016.13 1016.09 1016.17 1016.53 1017.01 1016.65 1016.65 1017.29 1017.25 1017.09 1017.17 1017.89 1018.29 1018.45 1018.53 1018.33 1018.61 1018.77 1018.81 1018.49 1018.61 1018.41 1018.33 1019.01 1019.13 1019.41 1018.65 1018.01 1018.21 1018.33 1017.89 1017.65 1017.77 1017.81 1017.81 1018.01 1018.17 1018.25 1018.29 1018.25 1018.21 1018.17 1018.09 1018.01 1017.93 1017.89 1017.85 1017.77 1017.73 1017.69 1017.61 1017.57 1017.49 1017.41
1010.45 1010.65 1010.93 1011.21 1011.57 1011.81 1012.13 1012.33 1012.73 1013.13 1013.53 1014.01 1014.45 1014.89 1015.09 1015.21 1015.13 1015.29 1015.45 1015.61 1015.69 1015.81 1015.77 1015.85 1016.05 1016.05 1016.13 1016.37 1016.57 1016.77 1017.01 1017.37 1017.57 1017.73 1017.97 1018.05 1018.17 1018.25 1018.21 1018.37 1018.33 1018.29 1017.89 1018.45 1019.01 1019.57 1018.65 1017.97 1018.21 1018.05 1017.77 1017.61 1017.73 1017.57 1017.61 1017.65 1017.85 1017.93 1018.01 1017.97 1017.89 1017.81 1017.73 1017.69 1017.65 1017.61 1017.57 1017.49 1017.41 1017.37 1017.33 1017.29 1017.25 1017.21
1009.97 1010.09 1010.29 1010.61 1010.97 1011.21 1011.49 1011.81 1012.29 1012.57 1012.85 1013.45 1013.97 1014.41 1014.57 1014.69 1014.65 1014.57 1014.49 1014.65 1014.85 1014.93 1015.09 1015.25 1015.33 1015.37 1015.49 1015.85 1016.05 1016.37 1016.65 1017.01 1017.29 1017.61 1017.81 1017.97 1018.37 1018.61 1018.81 1018.85 1017.97 1018.01 1017.41 1018.09 1018.65 1019.01 1018.65 1018.01 1018.21 1018.09 1017.69 1017.65 1017.81 1017.61 1017.49 1017.33 1017.49 1017.61 1017.73 1017.69 1017.57 1017.49 1017.37 1017.29 1017.25 1017.25 1017.21 1017.17 1017.09 1017.01 1016.97 1016.97 1016.97 1016.93
1009.41 1009.61 1009.69 1009.85 1010.25 1010.57 1010.85 1011.25 1011.89 1012.33 1012.61 1013.05 1013.49 1013.81 1014.13 1014.17 1014.29 1014.33 1014.09 1014.45 1014.69 1014.97 1015.17 1015.21 1015.37 1015.49 1015.73 1016.01 1016.33 1016.53 1016.73 1016.81 1016.97 1017.53 1018.05 1018.53 1018.05 1018.53 1018.89 1018.61 1018.25 1017.97 1017.37 1017.45 1017.65 1018.29 1018.69 1018.13 1018.17 1018.17 1017.85 1017.85 1017.93 1017.69 1017.29 1016.97 1017.13 1017.37 1017.37 1017.29 1017.17 1017.13 1017.09 1016.97 1016.89 1016.85 1016.81 1016.77 1016.73 1016.73 1016.69 1016.65 1016.61 1016.57
1008.73 1008.85 1009.21 1009.33 1009.45 1009.81 1010.09 1010.73 1011.41 1011.97 1012.37 1012.77 1013.01 1013.33 1013.57 1013.97 1014.01 1013.89 1013.69 1014.41 1015.05 1015.25 1015.37 1015.53 1015.69 1015.89 1016.01 1016.21 1016.53 1016.73 1016.89 1017.01 1017.09 1017.57 1018.29 1017.65 1017.37 1018.01 1018.29 1018.57 1018.21 1017.57 1017.57 1017.41 1017.45 1018.49 1018.41 1018.05 1018.01 1018.29 1017.93 1017.85 1017.49 1017.17 1016.97 1017.01 1017.01 1016.93 1016.81 1016.77 1016.77 1016.73 1016.73 1016.69 1016.57 1016.49 1016.45 1016.41 1016.37 1016.37 1016.41 1016.37 1016.41 1016.17
1008.13 1008.33 1008.65 1009.05 1009.05 1009.17 1009.45 1010.29 1010.93 1011.53 1011.89 1012.21 1012.45 1012.73 1013.05 1013.45 1013.65 1013.61 1013.49 1014.17 1014.89 1015.29 1015.45 1015.65 1015.85 1016.21 1016.33 1016.37 1016.49 1016.85 1017.05 1017.09 1017.25 1017.33 1017.45 1017.21 1017.49 1017.97 1017.77 1017.65 1017.89 1018.37 1017.77 1017.61 1017.69 1018.49 1018.17 1018.25 1018.01 1018.21 1018.37 1018.37 1017.53 1017.09 1017.05 1016.97 1016.77 1016.61 1016.45 1016.33 1016.21 1016.21 1016.29 1016.25 1016.17 1016.05 1016.01 1015.97 1015.97 1015.97 1016.01 1016.01 1016.17 1015.77
1007.73 1007.81 1008.05 1008.57 1008.97 1009.17 1009.53 1010.05 1010.57 1011.09 1011.41 1011.61 1011.85 1011.97 1012.49 1012.89 1013.17 1012.81 1013.25 1013.65 1014.33 1015.01 1015.05 1015.25 1015.49 1015.73 1015.89 1016.05 1016.25 1016.65 1016.97 1017.09 1017.21 1017.29 1017.29 1017.09 1017.17 1017.61 1017.81 1017.61 1017.77 1018.13 1017.81 1017.25 1017.41 1018.17 1017.97 1017.97 1018.13 1017.85 1018.17 1018.65 1018.49 1017.57 1017.05 1016.81 1016.65 1016.49 1016.29 1016.17 1016.05 1015.85 1015.81 1015.73 1015.61 1015.53 1015.53 1015.49 1015.49 1015.49 1015.49 1015.53 1015.77 1015.45
1007.09 1007.37 1007.49 1007.41 1008.21 1009.01 1009.41 1009.81 1010.25 1010.69 1011.09 1011.25 1011.41 1011.61 1011.85 1012.05 1012.05 1012.13 1012.85 1013.57 1014.13 1014.69 1014.89 1015.09 1015.29 1015.41 1015.69 1015.77 1015.85 1016.17 1016.45 1016.65 1016.85 1017.05 1016.97 1016.77 1016.81 1017.13 1017.33 1017.29 1017.33 1017.45 1017.21 1017.61 1017.53 1017.85 1018.29 1018.05 1018.21 1018.09 1018.13 1018.25 1018.01 1017.73 1017.13 1017.01 1016.65 1016.33 1016.05 1015.93 1015.81 1015.53 1015.49 1015.33 1015.17 1014.93 1014.89 1014.97 1014.97 1014.97 1014.97 1015.09 1015.41 1015.37
1006.01 1006.13 1006.53 1006.85 1007.37 1008.33 1009.01 1009.37 1009.77 1010.29 1010.81 1011.13 1011.13 1011.09 1011.29 1011.57 1011.81 1012.13 1012.29 1013.13 1013.89 1014.33 1014.65 1014.69 1015.09 1015.25 1015.41 1015.45 1015.49 1015.61 1015.81 1016.05 1016.37 1016.57 1016.61 1016.57 1016.45 1016.61 1016.61 1017.05 1017.57 1017.85 1017.61 1017.61 1017.65 1017.69 1017.97 1018.25 1018.05 1018.17 1018.25 1018.45 1018.09 1017.73 1017.61 1017.17 1016.49 1016.05 1015.93 1015.69 1015.53 1015.37 1015.25 1015.01 1014.85 1014.77 1014.61 1014.45 1014.33 1014.45 1014.65 1014.89 1015.01 1015.05
1005.13 1005.17 1005.57 1006.01 1006.81 1007.65 1008.45 1008.97 1009.41 1009.97 1010.41 1010.89 1010.85 1010.89 1011.29 1011.69 1011.77 1012.17 1012.41 1012.85 1013.61 1013.81 1014.25 1014.61 1015.05 1015.05 1015.01 1015.09 1015.33 1015.33 1015.49 1015.53 1015.81 1016.13 1016.13 1016.33 1016.49 1016.53 1016.57 1016.73 1017.05 1017.41 1017.33 1017.25 1017.25 1017.41 1017.73 1017.97 1017.85 1018.13 1018.41 1018.41 1018.53 1018.05 1017.61 1017.21 1016.57 1016.09 1015.93 1015.57 1015.37 1015.09 1014.81 1014.69 1014.77 1014.69 1014.53 1014.45 1014.33 1014.29 1014.33 1014.25 1014.29 1014.29
1004.37 1004.49 1004.77 1005.17 1006.17 1007.13 1007.97 1008.53 1009.01 1009.49 1010.05 1010.33 1010.61 1011.01 1011.29 1011.61 1011.81 1012.13 1012.49 1012.97 1013.29 1013.57 1014.05 1014.49 1014.89 1014.97 1014.65 1014.57 1015.01 1015.01 1015.09 1015.05 1015.61 1015.85 1015.93 1016.25 1016.37 1016.61 1016.65 1016.85 1017.05 1017.09 1017.17 1017.13 1017.01 1017.05 1017.33 1017.69 1017.73 1017.77 1018.05 1018.37 1018.49 1018.29 1017.89 1016.93 1016.53 1016.21 1016.09 1015.49 1015.29 1014.93 1014.65 1014.61 1014.61 1014.53 1014.37 1014.21 1014.17 1014.09 1014.05 1013.93 1013.65 1013.61
1003.53 1003.81 1004.17 1004.93 1005.89 1006.65 1007.49 1008.13 1008.73 1009.21 1009.53 1009.81 1010.29 1010.77 1011.13 1011.49 1011.81 1012.17 1012.33 1012.69 1013.01 1013.53 1013.97 1014.33 1014.57 1014.57 1014.45 1014.49 1014.49 1014.53 1014.73 1014.89 1015.41 1015.89 1016.05 1016.13 1016.33 1016.41 1016.61 1016.73 1016.89 1017.01 1017.09 1016.89 1016.81 1016.81 1017.05 1017.29 1017.49 1017.53 1017.85 1018.05 1018.17 1017.89 1017.65 1017.25 1016.77 1016.29 1015.93 1015.93 1015.53 1014.89 1014.69 1014.45 1014.29 1014.29 1014.29 1014.21 1014.17 1014.09 1014.01 1013.89 1013.73 1013.61
1003.37 1003.61 1004.09 1004.73 1005.45 1006.41 1007.29 1008.13 1008.57 1008.81 1009.21 1009.69 1010.05 1010.53 1010.97 1011.33 1011.81 1012.21 1012.33 1012.53 1012.89 1013.33 1013.69 1013.97 1014.29 1014.09 1014.17 1014.33 1014.25 1014.49 1014.73 1015.17 1015.65 1015.89 1016.13 1016.29 1016.49 1016.45 1016.69 1017.05 1017.09 1016.89 1016.65 1016.53 1016.49 1016.53 1016.73 1017.01 1017.25 1017.45 1017.69 1017.85 1017.85 1017.73 1017.37 1017.09 1016.73 1016.21 1015.85 1015.65 1015.21 1014.73 1014.25 1014.13 1014.17 1014.13 1014.13 1014.13 1014.01 1013.97 1013.73 1013.65 1013.57 1013.53
1003.49 1003.77 1004.05 1004.57 1005.29 1006.05 1006.85 1007.13 1007.45 1008.01 1008.93 1009.65 1009.93 1010.17 1010.21 1010.25 1010.77 1011.41 1011.97 1012.25 1012.57 1012.85 1013.09 1013.45 1013.57 1013.53 1013.81 1013.93 1014.29 1014.81 1015.05 1015.29 1015.37 1015.53 1015.85 1016.09 1016.17 1016.29 1016.41 1016.77 1016.81 1016.49 1016.21 1016.09 1016.05 1016.13 1016.37 1016.65 1016.89 1017.13 1017.61 1017.69 1017.57 1017.45 1017.17 1016.97 1016.73 1016.29 1015.69 1015.25 1015.01 1015.21 1014.41 1014.09 1013.93 1013.89 1013.85 1013.85 1013.81 1013.73 1013.61 1013.45 1013.25 1013.05
1002.69 1003.45 1004.05 1004.73 1005.41 1006.33 1007.13 1007.45 1007.77 1008.05 1008.61 1009.01 1009.33 1009.69 1009.89 1009.85 1009.61 1009.97 1010.81 1011.45 1011.81 1012.01 1012.25 1012.65 1012.93 1013.21 1013.73 1014.13 1014.45 1014.61 1014.85 1014.93 1015.09 1015.17 1015.45 1015.73 1015.73 1015.65 1016.09 1016.77 1016.69 1016.21 1015.97 1015.81 1015.77 1015.93 1016.25 1016.53 1016.77 1016.89 1017.13 1017.41 1017.57 1017.25 1016.93 1016.69 1016.41 1015.97 1015.53 1015.05 1014.69 1014.33 1014.09 1014.01 1013.89 1013.73 1013.65 1013.77 1013.85 1013.73 1013.57 1013.33 1013.09 1012.81
1002.21 1003.13 1003.77 1004.37 1005.05 1005.69 1006.25 1006.85 1007.25 1007.69 1008.25 1008.49 1008.65 1009.09 1009.49 1009.85 1009.81 1009.85 1010.49 1011.17 1011.41 1011.41 1011.81 1012.41 1012.81 1013.13 1013.69 1013.97 1014.13 1014.29 1014.49 1014.69 1014.69 1014.81 1015.17 1015.41 1015.53 1015.57 1015.77 1016.17 1015.97 1015.93 1015.85 1015.73 1015.73 1015.85 1015.97 1016.13 1016.29 1016.53 1016.77 1016.89 1016.97 1016.97 1016.93 1016.65 1015.97 1015.45 1015.25 1014.93 1014.69 1014.45 1014.09 1013.81 1013.73 1013.69 1013.69 1013.85 1013.85 1013.57 1013.41 1013.13 1012.85 1012.61
1001.85 1002.25 1002.73 1003.37 1004.13 1004.85 1005.37 1005.97 1006.53 1007.05 1007.53 1007.93 1008.45 1008.73 1008.93 1009.25 1009.49 1009.97 1010.37 1010.69 1010.77 1010.65 1011.21 1011.89 1012.61 1013.13 1013.45 1013.69 1013.77 1013.93 1014.09 1014.29 1014.33 1014.57 1014.97 1015.37 1015.37 1015.65 1015.85 1016.01 1015.81 1015.57 1015.69 1015.65 1015.57 1015.65 1015.77 1015.97 1016.13 1016.29 1016.33 1016.37 1016.29 1016.37 1016.37 1016.25 1015.81 1015.25 1014.89 1014.77 1014.65 1014.49 1014.05 1013.85 1013.69 1013.65 1013.69 1013.77 1013.73 1013.53 1013.21 1012.89 1012.57 1012.33
1002.25 1002.41 1002.41 1002.65 1003.05 1003.57 1004.05 1004.65 1005.37 1006.13 1006.77 1007.41 1007.89 1008.33 1008.69 1008.93 1009.33 1009.97 1010.45 1010.41 1010.09 1010.17 1010.89 1011.65 1012.29 1012.65 1012.93 1013.17 1013.37 1013.53 1013.57 1013.85 1014.05 1014.41 1014.89 1014.93 1015.13 1015.25 1015.33 1015.45 1015.29 1015.33 1015.33 1015.33 1015.33 1015.33 1015.61 1015.89 1016.05 1016.09 1015.97 1015.85 1015.73 1015.21 1015.13 1015.21 1015.25 1014.93 1014.77 1014.65 1014.45 1014.37 1014.21 1013.89 1013.77 1013.65 1013.69 1013.57 1013.37 1013.37 1013.05 1012.69 1012.41 1012.05
1001.37 1001.57 1001.73 1002.05 1002.29 1002.53 1003.05 1003.53 1004.25 1005.09 1005.81 1006.53 1007.17 1007.77 1008.33 1008.61 1008.81 1009.53 1010.21 1010.01 1009.61 1009.69 1010.49 1011.29 1011.85 1012.13 1012.45 1012.65 1012.89 1012.97 1013.09 1013.33 1013.53 1014.05 1014.73 1014.65 1014.69 1014.77 1014.85 1014.93 1014.93 1015.01 1015.01 1015.05 1015.09 1015.09 1015.29 1015.57 1015.73 1015.93 1015.97 1015.69 1015.45 1015.05 1014.33 1014.45 1014.61 1014.65 1014.85 1014.69 1014.37 1014.33 1014.09 1013.81 1013.69 1013.57 1013.41 1013.29 1013.17 1013.21 1013.05 1012.61 1012.21 1011.89
1000.81 1001.13 1001.45 1001.61 1001.69 1001.85 1002.13 1002.69 1003.45 1004.25 1004.85 1005.57 1006.25 1006.89 1007.49 1008.17 1008.73 1009.41 1009.81 1009.89 1009.49 1009.45 1010.05 1010.77 1011.29 1011.61 1011.93 1012.09 1012.37 1012.61 1012.65 1013.05 1013.25 1013.49 1014.09 1014.17 1014.17 1014.33 1014.61 1014.69 1014.89 1014.97 1014.93 1014.77 1014.73 1014.89 1015.17 1015.49 1015.57 1015.69 1015.73 1015.61 1015.33 1015.05 1014.41 1014.21 1014.45 1014.33 1014.41 1014.53 1014.41 1014.05 1013.89 1013.77 1013.61 1013.41 1013.09 1013.05 1013.05 1012.93 1012.77 1012.49 1012.09 1011.73
999.85 1000.65 1001.13 1001.37 1001.69 1001.89 1001.85 1002.05 1002.61 1003.37 1004.09 1004.85 1005.49 1006.21 1006.69 1007.09 1008.01 1009.05 1009.29 1009.33 1009.21 1009.37 1009.93 1010.45 1010.69 1011.13 1011.33 1011.57 1011.85 1012.17 1012.29 1012.49 1012.81 1012.97 1013.57 1013.69 1013.85 1014.05 1014.25 1014.33 1014.41 1014.53 1014.49 1014.41 1014.45 1014.69 1014.93 1015.21 1015.37 1015.33 1015.45 1015.45 1015.29 1014.93 1014.61 1013.97 1013.97 1014.05 1014.17 1014.33 1014.25 1013.93 1013.69 1013.61 1013.41 1013.17 1012.97 1012.77 1012.77 1012.57 1012.49 1012.29 1011.93 1011.53
998.77 999.81 1000.33 1000.85 1001.33 1001.73 1001.97 1002.13 1002.37 1002.81 1003.41 1004.17 1004.85 1005.45 1006.09 1006.69 1007.61 1008.53 1008.85 1008.93 1009.05 1009.37 1009.69 1010.05 1010.25 1010.61 1010.81 1011.09 1011.29 1011.57 1011.93 1012.17 1012.65 1012.69 1013.09 1013.13 1013.33 1013.69 1013.93 1014.05 1014.17 1014.09 1014.13 1014.17 1014.21 1014.41 1014.69 1015.01 1015.01 1015.01 1014.97 1015.09 1015.09 1014.85 1014.65 1014.65 1014.37 1013.77 1013.57 1013.77 1013.73 1013.77 1013.53 1013.45 1013.25 1012.97 1012.77 1012.61 1012.41 1012.33 1012.25 1011.93 1011.57 1011.25
997.41 998.33 999.05 999.49 1000.01 1000.49 1001.09 1001.41 1001.89 1002.45 1003.09 1003.73 1004.33 1004.85 1005.25 1005.89 1006.81 1007.57 1008.05 1008.53 1008.89 1009.21 1009.41 1009.61 1009.73 1010.21 1010.41 1010.61 1010.97 1011.09 1011.41 1011.81 1012.21 1012.45 1012.61 1012.69 1012.89 1013.25 1013.53 1013.69 1013.81 1013.81 1013.93 1013.89 1013.97 1014.05 1014.29 1014.49 1014.53 1014.57 1014.61 1014.65 1014.69 1014.65 1014.53 1014.33 1013.97 1013.57 1013.21 1012.93 1013.17 1013.37 1013.33 1013.21 1013.13 1012.97 1012.77 1012.49 1012.41 1012.29 1011.97 1011.69 1011.37 1010.89
996.09 997.05 997.73 998.21 998.69 999.17 999.93 1000.61 1001.25 1001.97 1003.01 1003.97 1004.45 1004.77 1005.17 1005.69 1006.45 1007.01 1007.41 1007.97 1008.57 1009.05 1009.21 1009.33 1009.49 1009.81 1009.97 1010.17 1010.57 1010.69 1010.97 1011.37 1011.85 1012.05 1012.21 1012.41 1012.61 1013.05 1013.33 1013.65 1013.77 1013.69 1013.73 1013.65 1013.65 1013.77 1013.93 1013.89 1014.29 1014.73 1014.89 1014.85 1014.69 1014.57 1014.49 1014.25 1013.81 1012.97 1012.61 1012.25 1012.61 1012.85 1012.85 1012.97 1012.93 1012.85 1012.69 1012.41 1012.33 1012.17 1011.93 1011.65 1011.33 1010.93
994.65 995.45 996.37 997.05 997.69 998.37 998.89 999.41 1000.01 1000.85 1002.09 1003.29 1004.05 1004.49 1005.01 1005.81 1006.37 1006.89 1007.37 1007.85 1008.33 1008.65 1008.81 1009.01 1009.25 1009.49 1009.61 1009.89 1010.09 1010.33 1010.65 1011.29 1011.65 1011.73 1011.85 1012.09 1012.41 1012.97 1013.45 1013.73 1013.61 1013.41 1013.41 1013.33 1013.25 1013.29 1013.29 1013.69 1014.21 1014.53 1014.61 1014.61 1014.45 1014.49 1014.13 1013.57 1013.21 1012.81 1012.57 1012.41 1012.05 1012.25 1012.61 1012.61 1012.53 1012.41 1012.25 1012.21 1012.25 1012.13 1011.81 1011.41 1011.17 1010.97
993.69 994.65 995.53 996.29 997.01 997.77 998.33 998.65 999.29 1000.05 1001.01 1002.29 1003.61 1004.41 1004.89 1005.41 1006.05 1006.57 1007.05 1007.77 1008.09 1008.33 1008.49 1008.69 1008.93 1009.17 1009.25 1009.37 1009.65 1010.17 1010.53 1010.97 1011.17 1011.37 1011.57 1011.81 1012.01 1012.53 1013.09 1013.37 1013.21 1012.89 1012.81 1012.77 1012.77 1013.05 1013.33 1013.65 1013.97 1014.13 1014.09 1014.01 1013.85 1013.73 1013.61 1013.13 1012.85 1012.69 1012.49 1012.13 1011.97 1011.93 1012.01 1012.05 1012.09 1012.05 1011.97 1011.85 1011.81 1011.77 1011.73 1011.69 1011.65 1011.25
993.53 994.77 995.77 996.49 997.21 998.09 999.05 999.93 1000.29 1000.29 1000.81 1001.89 1003.21 1004.01 1004.49 1004.89 1005.45 1006.01 1006.61 1007.13 1007.57 1007.85 1008.05 1008.37 1008.65 1008.85 1009.09 1009.45 1009.77 1010.09 1010.21 1010.41 1010.73 1011.05 1011.33 1011.57 1011.73 1011.97 1012.25 1012.53 1012.73 1012.65 1012.57 1012.57 1012.73 1012.89 1013.05 1013.29 1013.45 1013.61 1013.69 1013.61 1013.37 1013.29 1013.09 1012.85 1012.53 1012.21 1012.09 1012.09 1012.01 1011.93 1011.77 1011.49 1011.49 1011.49 1011.37 1011.25 1011.21 1011.29 1011.33 1011.37 1011.33 1011.21
993.81 994.49 995.45 996.13 996.73 997.89 999.17 1000.05 1000.69 1000.97 1001.33 1001.97 1002.85 1003.69 1004.21 1004.53 1005.01 1005.69 1006.25 1006.73 1007.05 1007.33 1007.65 1007.97 1008.37 1008.61 1008.93 1009.33 1009.69 1010.05 1010.05 1010.17 1010.41 1010.69 1010.93 1011.21 1011.57 1011.85 1012.01 1012.01 1012.25 1012.49 1012.49 1012.37 1012.61 1012.81 1012.97 1013.17 1013.21 1013.21 1013.33 1013.21 1013.01 1012.97 1012.77 1012.61 1012.41 1012.21 1012.05 1011.89 1011.73 1011.57 1011.45 1011.57 1011.65 1011.33 1011.01 1010.69 1010.41 1010.61 1010.81 1010.93 1011.01 1010.93
Wind_Speed
9 8 9 7 6 4 4 4 4 4 3 4 4 4 5 4 3 3 4 3 3 4 5 3 6 2 2 3 2 3 4 4 4 3 3 3 3 8 4 3 3 3 3 3 4 5 6 6 7 8 8 9 9 9 9 9 10 10 10 10 11 10 10 9 9 9 9 10 10 11 12 13 14 14
8 8 8 8 7 6 6 6 6 5 5 5 5 5 5 5 5 4 4 3 4 3 5 5 4 3 4 4 4 4 4 6 5 3 2 4 4 8 5 5 4 3 3 4 5 6 6 7 7 7 8 8 9 9 9 8 8 8 8 9 9 10 9 8 8 9 9 10 10 10 12 13 13 13
8 8 9 8 7 7 7 7 7 7 7 6 6 6 6 6 6 5 4 5 4 3 3 2 1 4 5 4 5 4 4 6 5 4 3 2 8 5 6 6 5 5 5 6 6 6 6 6 6 7 6 7 8 8 8 8 8 7 7 8 8 8 9 8 7 8 9 10 10 10 11 12 12 13
9 9 10 9 8 7 7 7 7 7 7 7 7 7 6 6 7 6 5 6 3 5 4 3 5 5 6 4 4 5 4 6 5 4 4 5 5 6 7 12 8 8 7 6 5 6 6 6 7 7 7 7 8 8 8 8 8 8 8 8 7 7 7 7 8 8 8 9 10 10 11 12 12 13
9 10 10 10 9 9 9 8 8 8 9 8 8 7 7 7 7 7 6 6 5 4 4 4 3 4 3 6 6 6 5 6 6 5 4 5 6 5 4 5 13 10 8 6 6 6 6 7 7 7 6 7 7 7 7 7 6 7 7 7 7 7 7 7 7 8 8 8 9 10 11 12 13 14
9 10 10 10 10 10 10 9 9 9 9 9 9 8 8 8 7 7 7 7 5 5 5 5 3 4 5 4 6 6 6 5 5 6 5 5 6 5 5 6 6 12 8 7 7 6 6 7 7 7 7 7 7 6 6 6 5 6 6 7 7 7 6 7 7 8 8 8 9 10 11 11 12 13
10 10 10 11 11 9 11 10 10 9 9 9 9 9 8 8 8 8 8 6 6 6 5 4 5 6 5 5 5 6 5 4 5 5 6 6 5 5 6 5 3 12 8 7 7 7 6 7 8 7 7 7 6 6 6 6 6 6 7 7 7 7 6 7 7 7 8 9 9 9 10 10 11 12
12 12 11 11 12 11 11 11 10 9 9 9 8 9 8 8 8 7 7 7 6 5 5 5 4 4 5 5 4 5 4 5 6 6 5 6 6 6 6 5 5 9 8 8 8 8 8 8 8 8 7 6 6 6 6 6 7 7 7 8 8 8 7 7 8 8 8 8 9 10 11 11 11 11
12 12 12 12 12 12 12 11 11 10 11 10 9 9 8 8 8 7 7 7 7 6 6 4 4 4 4 4 5 5 5 6 6 6 6 6 6 6 6 5 4 7 10 9 10 9 10 10 10 8 7 7 7 7 8 8 8 8 8 8 8 8 8 7 7 8 8 8 7 8 10 11 11 11
13 12 13 12 13 13 13 12 11 11 12 11 10 10 9 8 8 8 7 7 7 7 6 6 5 5 5 5 5 6 6 6 6 6 7 7 6 5 6 5 4 4 4 4 6 10 11 14 11 8 9 8 7 9 9 9 9 8 8 9 8 8 8 8 8 8 9 10 10 7 7 9 11 11
14 13 13 13 14 14 14 13 12 12 12 11 11 11 10 9 9 9 8 8 8 7 7 7 6 6 6 5 6 7 6 5 5 5 5 6 6 6 5 5 4 4 4 5 8 8 7 6 4 9 11 8 10 10 10 11 10 7 8 8 8 7 7 7 8 9 9 9 10 10 10 7 7 10
14 14 14 14 14 15 14 13 12 12 12 11 11 10 10 10 10 9 9 8 8 8 8 8 7 6 6 6 5 5 6 6 6 6 6 6 4 4 4 4 4 3 4 5 5 8 10 11 10 9 10 11 11 11 10 14 15 11 6 7 6 6 7 8 8 9 9 10 10 10 11 11 9 7
14 14 14 14 15 15 14 15 13 13 11 10 11 11 11 11 11 10 9 9 8 8 8 8 7 7 7 7 7 7 7 7 7 6 6 5 4 4 4 3 3 3 4 4 4 5 6 7 7 7 7 5 9 12 16 10 11 5 2 3 4 5 6 8 8 9 9 10 11 10 11 11 11 11
15 15 14 13 16 14 15 14 14 13 13 13 11 10 11 12 11 11 10 9 9 9 9 9 8 8 8 8 8 8 8 7 6 5 5 6 5 4 4 4 4 3 3 4 5 5 5 7 7 7 7 6 7 7 5 5 8 6 4 4 5 6 7 8 8 8 9 10 10 10 11 11 11 11
14 14 14 13 13 12 13 14 16 14 15 16 13 11 12 12 12 11 11 10 10 9 9 8 8 8 8 8 7 8 7 6 7 6 5 5 4 5 4 4 2 2 1 3 5 6 6 6 7 6 7 7 6 7 2 7 6 2 3 5 6 7 9 9 10 9 9 10 10 10 10 10 11 11
13 13 13 13 11 13 15 14 13 14 15 16 16 14 12 13 14 12 11 10 10 10 9 8 8 8 7 7 7 7 7 6 6 6 5 6 5 5 5 4 5 2 3 4 5 7 6 4 6 7 6 6 7 3 7 8 5 4 5 6 7 8 8 9 10 10 10 9 10 10 11 10 10 11
13 12 12 12 11 10 15 14 14 14 13 14 17 16 14 12 13 14 13 10 8 9 10 9 9 8 7 8 7 7 6 5 6 6 6 6 6 5 5 4 4 3 1 3 5 6 5 5 6 6 5 6 5 2 9 5 1 4 6 6 7 7 8 8 9 10 10 9 9 9 10 10 11 11
14 13 12 12 11 10 12 14 14 13 14 14 13 12 12 12 13 13 14 13 12 10 9 10 9 8 8 7 6 7 6 6 6 6 6 5 5 5 5 3 2 3 3 5 3 5 5 3 6 6 6 5 5 6 2 3 3 7 6 7 7 8 8 8 8 8 8 9 9 9 9 10 11 11
14 14 13 13 12 12 12 12 15 14 13 13 13 13 14 14 14 14 15 15 13 13 13 10 10 9 8 8 7 7 7 6 5 4 4 4 3 2 2 4 5 6 6 5 4 5 4 4 5 6 6 5 5 6 4 7 6 5 6 7 8 8 9 9 8 8 8 9 10 10 10 10 10 10
13 13 14 13 13 13 13 14 18 15 13 13 13 14 13 13 13 13 13 15 13 14 13 12 11 10 8 6 6 7 7 7 5 4 4 3 3 4 4 4 4 5 4 6 4 4 4 4 6 7 6 6 6 6 7 4 10 6 6 8 9 10 10 10 9 8 8 9 10 11 11 10 10 10
14 15 15 14 13 14 13 15 20 17 14 12 13 13 12 12 12 11 11 12 15 7 6 7 9 11 13 11 10 10 7 3 4 5 5 6 6 5 4 4 4 4 3 5 4 2 4 4 5 7 7 7 7 8 6 5 9 9 8 10 12 12 11 11 11 9 9 10 10 11 10 10 10 11
14 17 18 16 15 15 13 19 21 19 16 13 13 13 14 13 14 13 11 7 5 9 10 10 10 10 11 12 10 9 7 6 4 6 7 6 5 4 4 4 4 2 3 3 3 1 4 5 5 6 6 8 7 6 5 5 7 8 11 13 14 13 12 11 11 11 11 11 11 10 11 11 9 8
14 14 13 18 16 15 13 22 21 21 19 15 13 14 14 14 13 11 11 12 11 9 9 8 8 6 8 8 7 6 7 5 5 6 6 5 4 4 4 4 2 4 4 5 2 3 3 4 5 5 6 7 7 6 5 6 6 6 7 7 7 5 9 11 11 12 13 12 12 12 11 11 7 7
15 15 15 15 19 16 15 20 22 22 20 16 13 13 13 13 13 11 10 10 11 12 11 11 10 10 9 9 9 8 8 7 8 7 7 6 4 4 4 4 4 4 4 4 4 1 4 4 5 4 6 8 7 6 7 6 6 7 7 6 6 6 6 9 11 14 16 15 13 13 13 12 8 6
15 15 16 15 17 18 16 20 22 22 22 17 12 13 13 11 10 11 11 11 12 13 12 11 11 11 10 9 9 9 9 8 8 8 8 7 5 5 5 4 4 4 0 7 2 1 3 4 5 5 5 6 9 9 7 8 7 7 5 6 7 6 6 7 7 7 6 12 15 16 14 11 11 8
15 16 15 13 15 22 18 20 22 22 21 19 11 13 12 8 10 9 10 11 11 12 12 11 10 10 11 10 10 9 9 9 9 9 8 8 6 6 4 2 3 3 3 6 2 2 2 3 4 5 6 7 9 9 9 8 7 5 6 7 6 6 7 7 6 6 7 7 6 3 1 10 12 15
16 15 14 13 18 23 21 21 22 21 23 18 13 13 11 10 14 10 10 10 12 12 11 10 10 10 11 11 10 9 8 9 9 9 8 7 6 4 3 2 3 4 4 2 2 2 3 3 3 4 6 7 9 10 9 8 7 6 7 6 6 7 6 6 7 7 7 7 8 9 10 12 15 16
15 14 15 13 21 23 22 22 21 21 20 14 18 11 13 14 13 10 9 10 12 11 11 10 10 10 10 10 9 9 9 8 9 8 7 7 6 6 5 5 5 5 5 5 4 3 3 4 4 4 5 7 9 10 10 9 9 8 8 6 7 7 6 6 7 7 7 7 8 9 9 10 9 8
14 14 16 19 22 22 23 22 21 19 20 20 18 15 15 14 9 9 9 12 12 11 10 10 9 10 10 9 8 8 9 7 9 7 6 6 6 6 5 4 4 5 5 5 4 4 4 4 4 4 5 7 8 9 9 10 9 9 8 8 7 6 7 6 5 6 7 8 8 9 9 10 10 9
14 15 16 22 23 22 20 16 11 9 12 16 17 16 15 10 9 9 8 9 10 10 10 10 11 10 10 9 8 9 8 8 9 8 7 7 7 7 6 5 6 7 7 6 5 4 4 4 4 4 5 7 8 9 9 9 9 9 8 8 8 8 5 5 6 7 7 8 9 9 9 10 11 10
8 10 14 14 16 15 21 20 18 15 15 13 11 10 11 12 11 12 9 9 10 10 11 11 11 10 10 9 9 9 9 9 8 8 8 7 7 7 6 6 6 6 6 5 5 4 4 3 3 4 6 7 8 9 9 9 10 9 9 8 7 7 6 6 6 7 7 8 9 10 10 10 10 10
11 9 12 15 13 12 11 11 9 9 9 10 10 11 10 11 11 12 14 12 11 11 11 11 9 9 10 10 10 10 10 9 9 9 8 8 7 6 6 6 7 5 4 4 4 5 5 5 5 5 6 7 9 9 9 9 9 9 8 8 7 7 7 7 7 7 8 9 10 10 10 10 11 11
10 10 10 11 12 14 16 14 14 13 12 12 12 14 14 14 13 10 10 10 11 9 9 8 10 11 10 10 10 10 10 9 9 9 8 7 6 6 6 7 6 5 4 4 4 4 4 4 5 5 6 7 9 10 10 10 9 7 7 7 7 8 7 7 7 8 8 9 10 10 11 10 10 10
14 14 14 15 16 15 15 15 15 15 15 14 13 12 13 13 14 11 11 11 12 10 9 9 11 11 11 10 11 10 10 10 9 9 8 8 7 6 7 7 7 5 4 4 3 3 3 3 4 5 7 9 10 11 10 10 9 7 6 6 7 8 7 7 8 9 8 9 10 11 11 11 10 11
14 14 16 16 15 15 14 14 15 13 13 13 15 14 14 15 11 11 10 12 11 10 10 11 11 11 11 11 11 11 10 10 9 8 8 8 7 7 8 8 7 5 5 4 4 3 3 4 5 6 6 8 9 11 16 13 8 6 6 7 6 7 8 8 8 8 9 9 9 10 12 12 11 10
16 14 14 14 15 17 16 16 15 15 14 14 16 15 14 12 10 11 12 11 11 11 12 14 13 12 11 11 11 11 10 10 9 9 9 9 8 8 8 8 6 5 5 5 4 4 3 4 4 5 6 7 7 8 4 19 15 5 6 7 7 7 8 8 7 8 8 8 9 10 12 13 12 12
14 15 14 16 16 16 17 17 15 14 16 17 16 14 12 12 11 10 10 10 10 11 14 13 12 12 12 11 11 10 10 9 9 10 9 9 8 8 8 7 7 6 5 5 4 3 4 5 5 5 6 7 8 7 5 6 16 14 5 7 8 8 8 8 8 8 8 8 10 10 11 12 13 12
14 12 12 14 14 14 14 15 15 16 16 16 14 14 13 13 12 12 11 11 11 13 14 13 12 12 12 11 11 10 10 10 10 10 9 9 8 8 8 7 7 7 6 5 4 4 4 5 5 6 6 7 7 7 6 5 4 7 13 8 8 9 8 8 9 9 9 9 10 10 10 12 13 12
16 14 14 14 13 13 14 14 15 16 17 15 16 15 15 14 13 12 11 10 12 13 13 13 13 12 12 12 10 10 10 10 11 9 9 9 8 8 8 7 7 6 6 5 5 5 5 6 7 6 6 6 7 6 7 8 8 8 6 17 9 8 7 7 9 9 10 10 10 10 10 10 13 16
18 18 16 16 16 16 15 16 16 14 15 15 15 15 15 15 14 13 11 10 12 13 12 13 12 12 11 11 10 10 10 11 11 9 9 8 8 8 7 7 7 6 6 5 5 5 6 6 7 6 5 5 6 7 8 8 9 9 10 11 19 11 8 7 8 10 10 10 10 11 12 11 11 11
18 19 18 18 18 18 17 15 14 14 14 13 13 13 13 12 12 11 11 11 12 13 12 12 11 12 11 11 10 10 11 10 10 9 9 8 7 8 7 7 6 6 6 6 6 5 5 5 4 6 3 6 7 7 8 9 9 7 6 4 11 18 15 10 6 8 10 10 10 11 11 11 12 12
20 20 19 18 18 17 17 19 18 17 16 14 13 13 12 11 10 13 12 13 12 12 11 12 11 11 10 10 10 11 9 10 10 9 9 8 8 8 7 7 7 7 7 6 6 5 3 2 3 6 7 8 7 8 8 8 7 7 6 7 6 12 16 14 14 13 9 8 10 10 10 11 11 12
20 18 18 17 16 15 15 16 17 17 16 15 12 11 12 12 11 12 13 13 12 13 12 11 11 11 10 10 10 10 10 10 9 9 9 9 8 9 9 9 8 7 6 5 3 3 3 4 5 7 7 7 7 8 9 8 7 7 8 7 6 6 5 14 17 15 14 15 14 11 9 9 10 12
16 14 13 13 13 13 12 11 12 14 16 15 14 13 13 15 16 15 13 13 13 13 12 11 10 10 10 9 9 10 9 9 9 9 9 9 8 8 8 8 8 6 5 5 4 5 5 5 5 6 7 7 7 8 8 8 7 7 7 7 7 7 8 6 5 10 14 17 18 17 17 16 15 15
14 16 15 15 15 14 12 12 11 11 13 13 13 14 13 11 12 12 12 12 13 12 11 10 10 10 10 10 10 10 9 9 9 9 8 8 8 8 8 7 7 7 6 5 4 4 5 5 6 6 7 8 7 7 8 8 7 7 8 8 8 7 7 7 9 10 9 9 4 12 15 15 15 17
Wind_Direction
196 198 196 197 207 209 204 211 208 197 203 205 210 207 215 202 265 192 196 188 243 176 234 222 149 161 199 205 213 192 237 132 216 215 216 177 167 130 169 189 214 241 254 280 285 288 284 278 280 287 288 290 290 290 287 284 280 278 280 281 282 281 279 278 275 270 263 259 256 255 254 258 263 265
201 198 191 195 197 199 202 203 214 188 199 207 206 207 209 213 218 222 232 180 208 208 175 251 146 188 176 193 190 194 204 107 249 190 220 218 115 128 193 195 209 229 245 252 260 261 267 275 281 291 297 297 296 292 288 287 283 282 282 283 287 287 285 278 273 272 269 265 261 257 258 260 263 264
197 198 197 189 197 192 200 204 201 195 198 204 205 205 208 205 218 227 217 234 179 230 204 210 316 160 181 210 182 182 199 163 220 220 196 186 110 192 185 193 204 230 235 246 253 261 272 283 289 290 286 288 291 293 296 295 296 297 298 299 295 291 291 293 290 281 275 273 269 265 262 261 260 260
195 195 197 192 194 193 198 202 202 193 200 202 201 204 204 205 215 216 228 243 213 195 222 200 177 227 174 202 200 202 193 137 209 217 207 127 149 214 208 180 201 210 234 244 255 265 272 276 277 271 273 283 285 290 293 298 304 308 310 307 302 299 293 286 282 280 275 272 269 267 266 265 264 264
194 195 197 195 193 194 200 200 201 199 196 200 203 202 201 208 205 211 217 228 226 203 209 216 208 170 205 188 205 207 199 175 185 207 195 184 213 221 254 198 183 198 208 227 239 247 255 260 263 266 264 268 276 277 278 282 284 290 293 292 296 291 291 287 282 279 276 271 269 265 263 262 263 264
197 194 197 196 193 195 204 202 203 203 197 197 201 197 202 206 205 206 215 223 237 227 180 207 210 182 196 221 193 209 211 198 182 201 190 209 224 243 239 271 177 183 184 206 221 236 243 250 258 264 265 266 272 269 268 266 267 270 269 278 287 291 285 288 288 289 285 280 274 270 267 264 263 263
196 197 198 199 194 195 202 204 208 206 204 201 202 199 199 208 209 200 212 222 223 225 217 200 194 192 188 223 185 210 203 193 202 209 210 216 225 231 257 266 280 158 178 190 221 237 233 240 247 251 255 262 257 266 272 275 281 284 287 286 283 281 281 287 286 281 282 283 282 277 272 268 266 267
198 200 200 204 198 197 202 203 206 208 205 204 203 203 203 205 213 205 201 216 235 227 235 197 228 173 185 205 184 195 197 208 201 217 211 226 228 240 238 242 269 145 170 189 223 227 230 234 236 236 248 251 250 257 261 263 261 267 275 280 285 286 285 283 283 286 284 283 289 293 294 292 284 277
199 200 204 203 199 197 203 203 206 206 203 204 202 205 203 203 206 211 207 211 219 230 234 222 204 197 203 201 196 200 206 207 215 213 225 221 230 232 247 264 238 145 179 202 217 221 226 236 232 236 237 236 244 247 257 261 263 272 280 282 285 290 292 296 297 295 292 287 277 278 287 292 294 291
201 203 204 204 200 200 202 206 205 205 203 201 206 206 204 200 201 207 210 212 215 224 232 234 215 202 210 201 207 199 209 219 216 216 215 223 232 239 242 258 270 266 221 228 203 210 222 220 223 225 221 228 232 244 246 255 258 256 264 273 279 283 287 291 296 301 305 308 306 293 272 277 286 288
203 205 205 205 203 202 203 206 205 202 202 202 206 206 205 201 201 203 210 208 214 220 225 222 230 222 213 221 207 191 205 221 237 234 233 235 218 213 236 255 268 273 270 221 207 249 304 344 286 202 218 215 227 238 245 255 264 244 244 260 268 275 284 291 297 299 299 299 301 303 302 289 269 279
208 207 208 209 206 205 204 205 205 202 200 200 204 202 204 202 203 207 207 208 212 217 219 225 220 220 220 205 225 193 190 217 222 233 244 247 242 227 219 246 264 278 279 292 295 195 211 223 225 205 207 218 229 234 241 244 254 260 226 233 252 275 286 291 292 296 298 298 299 300 301 302 298 281
210 210 211 214 212 205 205 200 202 202 195 198 199 200 201 202 204 207 207 206 214 213 220 222 220 221 220 222 208 203 207 214 230 213 213 241 251 253 250 216 207 243 267 292 290 298 309 300 304 301 300 287 214 224 228 252 231 169 248 255 247 250 254 265 276 283 290 294 296 296 296 297 299 298
210 211 212 212 211 198 193 192 194 194 186 199 205 198 197 200 203 204 207 207 208 212 214 220 217 222 227 223 217 220 215 217 216 212 209 240 245 244 261 265 246 200 259 291 292 299 295 298 304 296 291 295 290 305 277 29 42 120 216 285 297 292 284 276 270 270 276 280 282 282 284 287 291 292
209 211 211 216 198 193 186 191 191 191 186 189 204 206 200 203 203 203 206 210 208 210 217 217 221 224 227 228 222 212 219 217 214 220 214 234 242 250 257 266 208 150 295 267 296 286 292 294 288 291 293 292 303 297 80 121 104 61 316 278 278 282 283 284 286 285 280 278 278 278 278 280 283 287
208 208 209 210 207 201 202 201 192 193 189 190 197 204 203 203 208 216 214 209 210 213 217 217 220 226 225 228 222 218 226 215 205 220 226 224 237 237 239 249 266 147 175 275 279 282 276 268 283 283 276 286 289 339 80 96 130 255 263 272 268 267 272 278 281 283 282 279 278 280 281 279 278 280
207 206 206 207 206 199 188 197 201 196 193 195 199 205 207 207 206 213 228 242 238 213 221 225 221 217 220 219 217 217 221 203 214 209 225 221 219 226 238 253 259 250 321 286 259 273 296 285 271 282 296 297 304 322 136 151 213 296 283 274 272 268 268 266 270 275 278 279 278 278 279 281 281 279
208 205 204 203 200 198 186 197 201 197 195 193 200 207 210 214 213 217 221 225 236 251 236 226 227 215 215 216 212 204 186 189 220 223 236 217 223 224 240 270 277 273 239 242 275 278 270 293 303 295 299 307 299 280 101 106 246 254 263 273 274 275 269 267 267 270 277 282 281 276 275 275 276 277
209 205 204 202 200 196 191 192 193 195 191 190 196 202 208 212 216 213 217 218 219 220 225 226 224 223 208 210 199 168 179 201 221 241 248 222 236 251 286 249 235 240 209 203 238 273 291 286 287 297 306 306 300 298 283 203 203 233 260 266 277 278 277 273 272 271 271 274 276 275 269 270 269 269
214 211 205 202 201 199 198 180 181 190 190 192 194 198 204 208 214 216 211 212 211 217 217 221 224 222 195 172 180 167 187 182 189 181 196 189 204 216 228 246 225 240 138 163 247 257 283 318 303 310 307 306 298 303 293 223 192 208 222 255 266 274 279 281 271 262 258 259 264 267 272 271 269 269
221 221 210 204 200 200 202 169 175 181 190 197 196 198 199 205 209 215 207 189 201 185 88 93 80 93 107 106 101 95 63 72 175 193 202 206 211 197 227 231 236 239 195 198 197 268 307 315 310 306 307 306 303 290 278 283 163 188 218 242 250 255 266 278 281 270 259 256 257 262 264 266 272 278
218 222 212 204 204 201 199 161 175 177 185 200 200 206 211 208 217 219 210 164 108 100 98 96 101 104 107 107 104 106 113 112 168 198 216 222 219 213 219 238 249 276 279 261 114 288 300 325 314 302 301 300 281 280 294 306 297 264 235 231 237 245 251 258 274 276 271 265 262 261 256 258 266 266
214 220 204 201 209 206 180 161 172 176 184 200 199 208 216 212 215 213 201 193 185 174 170 158 142 129 130 139 155 143 134 141 193 219 235 234 224 221 236 242 233 257 239 108 122 286 307 330 315 308 303 298 306 301 303 293 293 303 307 308 299 242 224 238 247 257 260 262 261 252 247 250 240 268
212 218 221 197 203 207 164 165 170 177 184 197 203 210 214 216 217 200 191 179 197 195 190 182 179 177 171 172 165 159 164 172 196 215 221 229 209 213 219 234 230 260 282 124 128 347 316 311 297 310 308 305 301 307 295 303 309 304 305 301 293 304 271 248 238 236 244 250 246 243 241 235 217 262
208 209 219 222 186 194 169 169 172 177 186 195 199 205 213 214 213 205 191 166 180 200 188 184 190 189 187 181 178 171 177 182 189 205 215 219 196 215 226 242 238 247 295 94 52 349 303 312 298 302 296 296 292 294 307 304 296 292 300 304 305 309 310 307 308 299 257 224 230 237 238 229 210 232
209 208 203 223 169 181 173 173 172 177 183 193 204 205 207 205 158 195 195 166 183 200 194 190 186 190 194 194 194 182 179 185 185 198 198 206 202 203 233 222 254 266 262 118 90 280 276 265 290 307 305 296 294 300 302 297 289 300 314 302 305 307 304 305 310 309 305 313 304 242 265 208 221 219
208 205 202 201 164 176 173 171 172 174 183 187 200 193 174 156 157 162 186 180 186 195 189 185 190 191 198 197 193 186 182 187 181 192 194 187 201 212 208 183 217 240 262 271 200 210 216 263 287 288 298 299 295 295 290 296 307 312 297 306 311 307 304 316 316 314 313 309 300 292 270 237 222 224
208 200 200 182 160 169 172 172 172 173 176 184 191 174 152 160 158 167 176 178 192 191 182 189 191 195 203 198 188 186 183 187 168 191 180 183 195 198 206 191 222 242 247 238 232 220 223 259 272 272 280 289 291 292 296 296 297 304 304 310 311 302 314 317 311 308 308 307 310 311 312 311 302 276
208 201 187 145 157 166 173 172 170 172 178 182 178 163 159 156 173 174 189 184 193 188 183 186 192 197 201 195 185 176 179 164 156 181 181 186 199 198 209 209 226 226 225 234 223 220 225 246 272 292 288 282 280 282 287 293 298 297 308 310 298 316 312 291 295 313 315 310 306 308 308 308 303 300
209 193 166 153 159 163 167 162 163 168 175 178 164 156 158 165 176 192 189 183 186 181 177 187 198 204 193 190 178 166 166 160 171 180 187 188 194 204 193 206 218 222 224 213 217 213 215 227 245 268 281 277 273 280 283 291 292 297 298 294 305 296 282 312 315 304 302 309 310 310 308 305 298 297
219 158 153 154 155 156 166 170 167 161 157 156 157 158 173 178 183 184 187 182 185 182 186 192 200 202 187 179 160 165 170 174 178 183 187 196 197 198 203 216 233 227 213 210 216 212 213 238 266 271 271 276 277 277 284 284 284 288 290 296 299 298 312 306 305 310 314 312 314 307 303 297 293 289
176 152 143 139 145 146 151 158 150 158 156 161 159 170 179 188 191 175 178 176 185 190 190 198 192 194 178 176 170 173 178 180 184 186 187 203 210 200 190 213 237 237 220 204 199 184 196 229 243 243 249 262 273 279 279 276 276 279 287 291 292 296 304 309 311 313 319 320 310 305 300 295 296 296
141 145 146 153 154 160 164 165 166 165 166 174 170 170 177 186 191 176 169 177 183 180 182 177 187 188 178 178 178 179 183 186 187 185 188 200 207 199 210 234 251 250 245 216 193 197 218 232 230 239 249 258 263 270 273 276 270 277 286 294 301 300 306 306 314 318 324 312 303 304 302 297 294 291
169 166 161 165 167 165 166 166 169 170 171 169 171 174 177 182 183 175 175 180 185 175 169 172 180 180 181 180 183 185 188 183 186 180 190 191 196 198 210 230 238 230 221 239 234 236 219 223 242 247 253 251 249 246 248 256 270 277 284 300 298 300 305 314 313 318 318 315 309 301 300 299 298 295
183 176 172 171 168 167 163 164 167 164 165 162 169 171 176 183 170 168 180 189 180 164 164 180 183 182 186 184 184 189 189 179 193 189 194 196 192 201 220 232 233 224 222 222 221 216 235 242 243 258 255 254 248 235 217 229 256 267 289 290 305 304 309 311 316 318 318 306 301 302 302 299 297 300
192 184 176 170 171 171 170 170 164 164 164 164 169 169 171 175 165 171 182 190 178 162 170 187 191 184 185 186 186 191 189 187 198 191 193 203 196 205 221 232 236 224 224 224 220 222 233 258 269 274 282 286 283 286 227 197 220 268 289 300 301 303 302 309 313 309 303 305 310 308 302 302 303 303
188 191 187 181 179 176 171 166 163 162 165 167 168 167 165 166 169 174 180 183 182 170 182 184 186 182 186 188 185 191 188 190 208 206 207 205 201 206 218 219 218 224 228 222 219 222 219 242 245 260 273 277 287 286 302 156 212 232 296 300 301 297 303 306 302 301 306 311 308 304 303 302 300 300
187 186 189 183 178 180 173 164 161 163 165 165 162 161 163 162 161 172 183 180 175 181 182 186 182 183 185 187 185 187 193 197 214 216 203 203 202 205 214 223 212 207 208 205 199 209 219 238 245 254 256 270 282 282 291 299 307 220 209 241 289 295 296 298 300 310 309 308 307 308 305 299 298 300
177 180 177 177 173 170 169 168 165 165 162 160 161 160 161 158 158 171 174 167 170 183 181 185 183 183 186 185 189 186 201 206 215 214 197 204 199 206 211 217 219 207 211 206 202 207 213 227 236 242 255 265 271 290 303 300 282 303 237 199 249 279 284 298 305 305 311 312 311 312 300 292 284 278
177 176 179 174 172 172 173 170 167 162 159 159 159 162 162 160 162 168 161 163 179 185 182 186 182 179 186 183 187 197 203 211 214 207 201 204 197 204 212 217 215 209 199 208 208 211 216 227 227 238 249 269 289 288 292 281 284 272 269 222 204 228 261 297 296 309 308 311 315 309 308 307 304 312
168 175 176 175 172 171 166 161 153 151 153 156 158 156 156 155 156 163 163 166 176 181 183 184 180 179 183 182 187 206 210 209 204 204 198 204 198 194 207 207 212 209 213 208 209 217 231 231 79 75 290 273 263 262 252 256 258 276 280 306 183 210 226 227 269 300 298 307 311 311 307 309 312 311
175 174 174 171 170 164 161 159 159 155 152 155 158 159 150 150 161 155 160 163 169 175 181 180 178 180 181 185 199 211 206 192 197 199 196 197 191 188 187 203 220 213 209 211 205 215 188 137 194 218 237 234 243 244 258 268 283 287 301 294 293 195 209 224 224 231 259 294 307 305 304 308 314 310
173 168 168 167 163 157 157 155 152 152 150 147 145 148 154 154 152 157 161 163 171 176 181 176 174 180 189 196 200 198 195 190 197 195 192 194 195 190 193 206 220 215 204 208 207 207 230 220 223 234 237 246 246 252 264 272 279 283 279 284 298 318 257 211 217 228 235 233 231 241 270 290 304 304
156 149 146 144 136 135 134 137 142 143 140 142 150 156 161 166 165 159 162 165 171 177 178 175 175 182 180 177 184 189 200 193 191 191 190 191 198 201 202 197 201 208 207 209 207 213 214 227 236 241 249 247 248 255 264 271 272 282 299 293 293 288 291 319 298 223 224 229 233 235 238 241 247 259
146 140 138 136 131 127 131 138 138 140 140 141 146 156 160 150 145 153 159 165 171 175 174 174 174 176 174 178 184 188 195 188 188 185 190 188 193 200 209 212 197 200 213 210 212 215 221 232 237 241 250 251 253 259 266 266 272 284 276 278 288 296 310 321 310 310 314 319 253 200 219 225 238 248